Location: Audinghen
(50.8518°N, 1.6129°E)
Time: 21:48:38
(UTC+00:00)

Helios 1B rocket - Pass Details

Date: 07 August 2020
Orbit: 575 x 583 km, 98.1° (Epoch: 22 September)

Event Time Altitude Azimuth Distance (km) Brightness Sun altitude
Rises 00:43:12 0° 14° (NNE) 2,802 7.5 -22.1°
Reaches altitude 10° 00:45:21 10° 15° (NNE) 1,898 6.2 -22.1°
Maximum altitude 00:49:28 88° 98° (E) 583 2.3 -21.9°
Enters shadow 00:49:49 75° 189° (S) 602 2.2 -21.9°
